Time,TemperatureF,DewpointF,PressureIn,WindDirection,WindDirectionDegrees,WindSpeedMPH,WindSpeedGustMPH,Humidity,HourlyPrecipIn,Conditions,Clouds,dailyrainin,SoftwareType,DateUTC
2013-04-10 00:03:00,50.0,49.0,30.06,SE,125,5.0,27.0,98,0.00,,,0.01,,2013-04-10 04:03:00,
2013-04-10 00:23:00,49.0,49.0,30.02,East,94,5.0,0.0,99,0.00,,,0.01,,2013-04-10 04:23:00,
2013-04-10 00:33:00,49.0,49.0,30.02,East,94,5.0,0.0,99,0.00,,,0.01,,2013-04-10 04:33:00,
2013-04-10 00:43:00,49.0,49.0,30.02,East,94,5.0,0.0,99,0.00,,,0.01,,2013-04-10 04:43:00,
2013-04-10 00:53:00,48.0,48.0,30.03,SE,124,2.0,27.0,99,0.00,,,0.01,,2013-04-10 04:53:00,
2013-04-10 01:02:00,48.0,48.0,30.03,SE,124,2.0,27.0,99,0.00,,,0.01,,2013-04-10 05:02:00,
2013-04-10 01:13:00,48.0,48.0,30.02,ENE,77,5.0,27.0,99,0.00,,,0.01,,2013-04-10 05:13:00,
2013-04-10 01:23:00,48.0,48.0,30.02,ENE,77,5.0,27.0,99,0.00,,,0.01,,2013-04-10 05:23:00,
2013-04-10 01:33:00,48.0,48.0,30.02,ENE,77,5.0,27.0,99,0.00,,,0.01,,2013-04-10 05:33:00,
2013-04-10 01:43:00,48.0,48.0,30.02,ENE,77,5.0,27.0,99,0.00,,,0.01,,2013-04-10 05:43:00,
2013-04-10 01:53:00,47.0,47.0,30.00,ESE,103,4.0,27.0,99,0.00,,,0.01,,2013-04-10 05:53:00,
2013-04-10 02:03:00,47.0,47.0,30.00,ESE,103,4.0,27.0,99,0.00,,,0.01,,2013-04-10 06:03:00,
2013-04-10 02:12:00,47.0,47.0,29.96,SE,132,3.0,27.0,99,0.00,,,0.01,,2013-04-10 06:12:00,
2013-04-10 02:22:00,47.0,47.0,29.96,SE,132,3.0,27.0,99,0.00,,,0.01,,2013-04-10 06:22:00,
2013-04-10 02:32:00,47.0,47.0,29.96,SE,132,3.0,27.0,99,0.00,,,0.01,,2013-04-10 06:32:00,
2013-04-10 02:42:00,47.0,47.0,29.96,SE,132,3.0,27.0,99,0.00,,,0.01,,2013-04-10 06:42:00,
2013-04-10 02:52:00,48.0,48.0,29.96,SE,126,7.0,27.0,99,0.00,,,0.01,,2013-04-10 06:52:00,
2013-04-10 03:02:00,48.0,48.0,29.96,SE,126,7.0,27.0,99,0.00,,,0.01,,2013-04-10 07:02:00,
2013-04-10 03:12:00,48.0,48.0,29.96,SE,126,7.0,27.0,99,0.00,,,0.01,,2013-04-10 07:12:00,
2013-04-10 03:22:00,48.0,48.0,29.94,East,80,4.0,27.0,99,0.00,,,0.01,,2013-04-10 07:22:00,
2013-04-10 03:32:00,48.0,48.0,29.94,East,80,4.0,27.0,99,0.00,,,0.01,,2013-04-10 07:32:00,
2013-04-10 03:43:00,48.0,48.0,29.94,East,80,4.0,27.0,99,0.00,,,0.01,,2013-04-10 07:43:00,
2013-04-10 03:52:00,48.0,48.0,29.93,East,97,7.0,27.0,99,0.00,,,0.01,,2013-04-10 07:52:00,
2013-04-10 04:02:00,48.0,48.0,29.93,East,97,7.0,27.0,99,0.00,,,0.01,,2013-04-10 08:02:00,
2013-04-10 04:12:00,48.0,48.0,29.93,East,97,7.0,27.0,99,0.00,,,0.01,,2013-04-10 08:12:00,
2013-04-10 04:22:00,49.0,49.0,30.02,NNW,341,8.0,27.0,99,0.00,,,0.01,,2013-04-10 08:22:00,
2013-04-10 04:32:00,49.0,49.0,30.02,NNW,341,8.0,27.0,99,0.00,,,0.01,,2013-04-10 08:32:00,
2013-04-10 04:43:00,49.0,49.0,30.02,NNW,341,8.0,27.0,99,0.00,,,0.01,,2013-04-10 08:43:00,
2013-04-10 04:52:00,47.0,47.0,29.96,NE,52,10.0,27.0,99,0.07,,,0.08,,2013-04-10 08:52:00,
2013-04-10 05:02:00,47.0,47.0,29.96,NE,52,10.0,27.0,99,0.07,,,0.08,,2013-04-10 09:02:00,
2013-04-10 05:12:00,46.0,46.0,29.90,NE,49,6.0,27.0,99,0.07,,,0.08,,2013-04-10 09:12:00,
2013-04-10 05:22:00,46.0,46.0,29.90,NE,49,6.0,27.0,99,0.07,,,0.08,,2013-04-10 09:22:00,
2013-04-10 05:32:00,46.0,46.0,29.90,NE,49,6.0,27.0,99,0.07,,,0.08,,2013-04-10 09:32:00,
2013-04-10 05:43:00,46.0,46.0,29.91,NE,55,6.0,27.0,99,0.00,,,0.08,,2013-04-10 09:43:00,
2013-04-10 05:53:00,46.0,46.0,29.91,NE,55,6.0,27.0,99,0.00,,,0.08,,2013-04-10 09:53:00,
2013-04-10 06:03:00,46.0,46.0,29.91,NE,55,6.0,27.0,99,0.00,,,0.08,,2013-04-10 10:03:00,
2013-04-10 06:13:00,46.0,46.0,29.92,NE,52,1.0,27.0,99,0.00,,,0.07,,2013-04-10 10:13:00,
2013-04-10 06:23:00,46.0,46.0,29.92,NE,52,1.0,27.0,99,0.00,,,0.07,,2013-04-10 10:23:00,
2013-04-10 06:33:00,46.0,46.0,29.92,NE,52,1.0,27.0,99,0.00,,,0.07,,2013-04-10 10:33:00,
2013-04-10 06:43:00,46.0,46.0,29.92,NE,52,1.0,27.0,99,0.00,,,0.07,,2013-04-10 10:43:00,
2013-04-10 06:53:00,46.0,46.0,29.93,NE,45,0.0,27.0,99,0.00,,,0.07,,2013-04-10 10:53:00,
2013-04-10 07:02:00,46.0,46.0,29.93,NE,45,0.0,27.0,99,0.00,,,0.07,,2013-04-10 11:02:00,
2013-04-10 07:12:00,46.0,46.0,29.93,NE,45,0.0,27.0,99,0.00,,,0.07,,2013-04-10 11:12:00,
2013-04-10 07:22:00,46.0,46.0,29.96,NE,52,0.0,27.0,99,0.00,,,0.07,,2013-04-10 11:22:00,
2013-04-10 07:32:00,46.0,46.0,29.96,NE,52,0.0,27.0,99,0.00,,,0.07,,2013-04-10 11:32:00,
2013-04-10 07:42:00,46.0,46.0,29.96,NE,52,0.0,27.0,99,0.00,,,0.07,,2013-04-10 11:42:00,
2013-04-10 07:53:00,47.0,47.0,29.96,NE,52,0.0,27.0,99,0.00,,,0.07,,2013-04-10 11:53:00,
2013-04-10 08:03:00,47.0,47.0,29.96,NE,52,0.0,27.0,99,0.00,,,0.07,,2013-04-10 12:03:00,
2013-04-10 08:12:00,47.0,47.0,29.96,NE,52,0.0,27.0,99,0.00,,,0.07,,2013-04-10 12:12:00,
2013-04-10 08:23:00,48.0,48.0,29.98,NE,52,0.0,27.0,99,0.00,,,0.07,,2013-04-10 12:23:00,
2013-04-10 08:33:00,48.0,48.0,29.98,NE,52,0.0,27.0,99,0.00,,,0.07,,2013-04-10 12:33:00,
2013-04-10 08:43:00,48.0,48.0,29.98,NE,52,0.0,27.0,99,0.00,,,0.07,,2013-04-10 12:43:00,
2013-04-10 08:52:00,49.0,49.0,29.98,NNW,345,1.0,27.0,99,0.00,,,0.07,,2013-04-10 12:52:00,
2013-04-10 09:02:00,49.0,49.0,29.98,NNW,345,1.0,27.0,99,0.00,,,0.07,,2013-04-10 13:02:00,
2013-04-10 09:12:00,49.0,49.0,29.98,NNW,345,1.0,27.0,99,0.00,,,0.07,,2013-04-10 13:12:00,
2013-04-10 09:23:00,50.0,50.0,29.97,NE,47,5.0,27.0,99,0.00,,,0.07,,2013-04-10 13:23:00,
2013-04-10 09:32:00,50.0,50.0,29.97,NE,47,5.0,27.0,99,0.00,,,0.07,,2013-04-10 13:32:00,
2013-04-10 09:43:00,50.0,50.0,29.97,NE,47,5.0,27.0,99,0.00,,,0.07,,2013-04-10 13:43:00,
2013-04-10 09:53:00,51.0,51.0,29.98,North,4,3.0,27.0,99,0.00,,,0.07,,2013-04-10 13:53:00,
2013-04-10 10:02:00,51.0,51.0,29.98,North,4,3.0,27.0,99,0.00,,,0.07,,2013-04-10 14:02:00,
2013-04-10 10:12:00,49.0,49.0,30.00,North,5,3.0,27.0,99,0.00,,,0.07,,2013-04-10 14:12:00,
2013-04-10 10:22:00,49.0,49.0,30.00,North,5,3.0,27.0,99,0.00,,,0.07,,2013-04-10 14:22:00,
2013-04-10 10:33:00,49.0,49.0,30.00,North,5,3.0,27.0,99,0.00,,,0.07,,2013-04-10 14:33:00,
2013-04-10 10:42:00,49.0,48.0,29.99,NNW,327,3.0,27.0,98,0.00,,,0.07,,2013-04-10 14:42:00,
2013-04-10 10:52:00,49.0,48.0,29.99,NNW,327,3.0,27.0,98,0.00,,,0.07,,2013-04-10 14:52:00,
2013-04-10 11:02:00,49.0,48.0,29.99,NNW,327,3.0,27.0,98,0.00,,,0.07,,2013-04-10 15:02:00,
2013-04-10 11:12:00,49.0,48.0,29.99,NNW,327,3.0,27.0,98,0.00,,,0.07,,2013-04-10 15:12:00,
2013-04-10 11:22:00,55.0,54.0,30.00,NW,319,6.0,27.0,96,0.00,,,0.07,,2013-04-10 15:22:00,
2013-04-10 11:33:00,55.0,54.0,30.00,NW,319,6.0,27.0,96,0.00,,,0.07,,2013-04-10 15:33:00,
2013-04-10 11:43:00,55.0,54.0,30.00,NW,319,6.0,27.0,96,0.00,,,0.07,,2013-04-10 15:43:00,
2013-04-10 11:53:00,57.0,55.0,29.99,North,349,2.0,27.0,94,0.00,,,0.07,,2013-04-10 15:53:00,
2013-04-10 12:03:00,57.0,55.0,29.99,North,349,2.0,27.0,94,0.00,,,0.07,,2013-04-10 16:03:00,
2013-04-10 12:13:00,57.0,55.0,29.99,North,349,2.0,27.0,94,0.00,,,0.07,,2013-04-10 16:13:00,
2013-04-10 12:23:00,59.0,56.0,29.99,NNE,16,6.0,27.0,90,0.00,,,0.07,,2013-04-10 16:23:00,
2013-04-10 12:33:00,59.0,56.0,29.99,NNE,16,6.0,27.0,90,0.00,,,0.07,,2013-04-10 16:33:00,
2013-04-10 12:43:00,59.0,56.0,29.99,NNE,16,6.0,27.0,90,0.00,,,0.07,,2013-04-10 16:43:00,
2013-04-10 12:53:00,61.0,56.0,29.99,North,355,5.0,27.0,83,0.00,,,0.07,,2013-04-10 16:53:00,
2013-04-10 13:03:00,61.0,56.0,29.99,North,355,5.0,27.0,83,0.00,,,0.07,,2013-04-10 17:03:00,
2013-04-10 13:13:00,64.0,57.0,30.00,NE,55,0.0,27.0,79,0.00,,,0.07,,2013-04-10 17:13:00,
2013-04-10 13:22:00,64.0,57.0,30.00,NE,55,0.0,27.0,79,0.00,,,0.07,,2013-04-10 17:22:00,
2013-04-10 13:33:00,64.0,57.0,30.00,NE,55,0.0,27.0,79,0.00,,,0.07,,2013-04-10 17:33:00,
2013-04-10 13:43:00,64.0,57.0,30.00,NE,55,0.0,27.0,79,0.00,,,0.07,,2013-04-10 17:43:00,
2013-04-10 13:53:00,65.0,56.0,29.98,NNW,341,1.0,27.0,74,0.00,,,0.07,,2013-04-10 17:53:00,
2013-04-10 14:03:00,65.0,56.0,29.98,NNW,341,1.0,27.0,74,0.00,,,0.07,,2013-04-10 18:03:00,
2013-04-10 14:12:00,65.0,56.0,29.98,NNW,341,1.0,27.0,74,0.00,,,0.07,,2013-04-10 18:12:00,
2013-04-10 14:23:00,62.0,54.0,29.98,SSE,159,7.0,27.0,75,0.00,,,0.07,,2013-04-10 18:23:00,
2013-04-10 14:33:00,62.0,54.0,29.98,SSE,159,7.0,27.0,75,0.00,,,0.07,,2013-04-10 18:33:00,
2013-04-10 14:43:00,62.0,54.0,29.98,SSE,159,7.0,27.0,75,0.00,,,0.07,,2013-04-10 18:43:00,
2013-04-10 14:53:00,56.0,53.0,29.98,South,185,4.0,27.0,89,0.00,,,0.07,,2013-04-10 18:53:00,
2013-04-10 15:03:00,56.0,53.0,29.98,South,185,4.0,27.0,89,0.00,,,0.07,,2013-04-10 19:03:00,
2013-04-10 15:13:00,59.0,55.0,29.96,SSE,161,5.0,27.0,88,0.00,,,0.07,,2013-04-10 19:13:00,
2013-04-10 15:22:00,59.0,55.0,29.96,SSE,161,5.0,27.0,88,0.00,,,0.07,,2013-04-10 19:22:00,
2013-04-10 15:33:00,59.0,55.0,29.96,SSE,161,5.0,27.0,88,0.00,,,0.07,,2013-04-10 19:33:00,
2013-04-10 15:42:00,60.0,55.0,29.95,SE,130,5.0,27.0,83,0.00,,,0.07,,2013-04-10 19:42:00,
2013-04-10 15:53:00,60.0,55.0,29.95,SE,130,5.0,27.0,83,0.00,,,0.07,,2013-04-10 19:53:00,
2013-04-10 16:03:00,60.0,55.0,29.95,SE,130,5.0,27.0,83,0.00,,,0.07,,2013-04-10 20:03:00,
2013-04-10 16:12:00,56.0,53.0,29.95,South,176,7.0,27.0,89,0.00,,,0.07,,2013-04-10 20:12:00,
2013-04-10 16:23:00,56.0,53.0,29.95,South,176,7.0,27.0,89,0.00,,,0.07,,2013-04-10 20:23:00,
2013-04-10 16:33:00,56.0,53.0,29.95,South,176,7.0,27.0,89,0.00,,,0.07,,2013-04-10 20:33:00,
2013-04-10 16:43:00,55.0,53.0,29.96,SE,136,6.0,27.0,93,0.00,,,0.07,,2013-04-10 20:43:00,
2013-04-10 16:52:00,55.0,53.0,29.96,SE,136,6.0,27.0,93,0.00,,,0.07,,2013-04-10 20:52:00,
2013-04-10 17:03:00,55.0,53.0,29.96,SE,136,6.0,27.0,93,0.00,,,0.07,,2013-04-10 21:03:00,
2013-04-10 17:13:00,55.0,53.0,29.95,SSE,149,4.0,27.0,94,0.00,,,0.07,,2013-04-10 21:13:00,
2013-04-10 17:22:00,55.0,53.0,29.95,SSE,149,4.0,27.0,94,0.00,,,0.07,,2013-04-10 21:22:00,
2013-04-10 17:33:00,55.0,53.0,29.95,SSE,149,4.0,27.0,94,0.00,,,0.07,,2013-04-10 21:33:00,
2013-04-10 17:43:00,55.0,53.0,29.95,SSE,149,4.0,27.0,94,0.00,,,0.07,,2013-04-10 21:43:00,
2013-04-10 17:53:00,50.0,49.0,29.96,SSE,164,9.0,27.0,98,0.00,,,0.07,,2013-04-10 21:53:00,
2013-04-10 18:02:00,49.0,49.0,29.96,South,178,6.0,27.0,99,0.00,,,0.07,,2013-04-10 22:02:00,
2013-04-10 18:03:00,50.0,49.0,29.96,SSE,164,9.0,27.0,98,0.00,,,0.07,,2013-04-10 22:03:00,
2013-04-10 18:13:00,49.0,49.0,29.96,South,178,6.0,27.0,99,0.00,,,0.07,,2013-04-10 22:13:00,
2013-04-10 18:23:00,49.0,49.0,29.96,South,178,6.0,27.0,99,0.00,,,0.07,,2013-04-10 22:23:00,
2013-04-10 18:33:00,49.0,49.0,29.96,South,178,6.0,27.0,99,0.00,,,0.07,,2013-04-10 22:33:00,
2013-04-10 18:43:00,49.0,49.0,29.96,South,178,6.0,27.0,99,0.00,,,0.07,,2013-04-10 22:43:00,
2013-04-10 18:53:00,49.0,49.0,29.96,South,178,6.0,27.0,99,0.00,,,0.07,,2013-04-10 22:53:00,
2013-04-10 19:12:00,48.0,48.0,29.95,SE,134,6.0,27.0,99,0.00,,,0.07,,2013-04-10 23:12:00,
2013-04-10 19:22:00,48.0,48.0,29.95,SE,134,6.0,27.0,99,0.00,,,0.07,,2013-04-10 23:22:00,
2013-04-10 19:33:00,48.0,48.0,29.95,SE,134,6.0,27.0,99,0.00,,,0.07,,2013-04-10 23:33:00,
2013-04-10 19:43:00,48.0,48.0,29.95,SE,134,6.0,27.0,99,0.00,,,0.07,,2013-04-10 23:43:00,
2013-04-10 19:53:00,46.0,46.0,29.93,East,81,1.0,27.0,99,0.00,,,0.07,,2013-04-10 23:53:00,
2013-04-10 20:02:00,46.0,46.0,29.93,East,81,1.0,27.0,99,0.00,,,0.07,,2013-04-11 00:02:00,
2013-04-10 20:13:00,46.0,46.0,29.92,ENE,61,0.0,27.0,99,0.00,,,0.07,,2013-04-11 00:13:00,
2013-04-10 20:22:00,46.0,46.0,29.92,ENE,61,0.0,27.0,99,0.00,,,0.07,,2013-04-11 00:22:00,
2013-04-10 20:32:00,46.0,46.0,29.92,ENE,61,0.0,27.0,99,0.00,,,0.07,,2013-04-11 00:32:00,
2013-04-10 20:43:00,46.0,46.0,30.03,NW,306,12.0,27.0,99,0.00,,,0.07,,2013-04-11 00:43:00,
2013-04-10 20:53:00,46.0,46.0,30.03,NW,306,12.0,27.0,99,0.00,,,0.07,,2013-04-11 00:53:00,
2013-04-10 21:02:00,46.0,46.0,30.03,NW,306,12.0,27.0,99,0.00,,,0.07,,2013-04-11 01:02:00,
2013-04-10 21:12:00,47.0,47.0,29.96,SSE,164,3.0,39.0,99,0.02,,,0.09,,2013-04-11 01:12:00,
2013-04-10 21:22:00,47.0,47.0,29.96,SSE,164,3.0,39.0,99,0.02,,,0.09,,2013-04-11 01:22:00,
2013-04-10 21:32:00,47.0,47.0,29.96,SSE,164,3.0,39.0,99,0.02,,,0.09,,2013-04-11 01:32:00,
2013-04-10 21:42:00,46.0,46.0,29.93,ENE,75,0.0,39.0,99,0.07,,,0.14,,2013-04-11 01:42:00,
2013-04-10 21:52:00,46.0,46.0,29.93,ENE,75,0.0,39.0,99,0.07,,,0.14,,2013-04-11 01:52:00,
2013-04-10 22:02:00,46.0,46.0,29.91,ENE,66,0.0,39.0,99,0.05,,,0.14,,2013-04-11 02:02:00,
2013-04-10 22:03:00,46.0,46.0,29.93,ENE,75,0.0,39.0,99,0.07,,,0.14,,2013-04-11 02:03:00,
2013-04-10 22:12:00,46.0,46.0,29.91,ENE,66,0.0,39.0,99,0.05,,,0.14,,2013-04-11 02:12:00,
2013-04-10 22:22:00,46.0,46.0,29.91,ENE,66,0.0,39.0,99,0.05,,,0.14,,2013-04-11 02:22:00,
2013-04-10 22:32:00,46.0,46.0,29.91,ENE,66,0.0,39.0,99,0.05,,,0.14,,2013-04-11 02:32:00,
2013-04-10 22:42:00,46.0,46.0,29.91,ENE,66,0.0,39.0,99,0.05,,,0.14,,2013-04-11 02:42:00,
2013-04-10 22:53:00,46.0,46.0,29.91,ENE,66,0.0,39.0,99,0.05,,,0.14,,2013-04-11 02:53:00,
2013-04-10 23:12:00,45.0,45.0,29.92,ESE,119,0.0,39.0,99,0.00,,,0.14,,2013-04-11 03:12:00,
2013-04-10 23:22:00,45.0,45.0,29.92,ESE,119,0.0,39.0,99,0.00,,,0.14,,2013-04-11 03:22:00,
2013-04-10 23:33:00,45.0,45.0,29.92,ESE,119,0.0,39.0,99,0.00,,,0.14,,2013-04-11 03:33:00,
2013-04-10 23:43:00,45.0,45.0,29.92,ESE,119,0.0,39.0,99,0.03,,,0.17,,2013-04-11 03:43:00,
2013-04-10 23:54:00,45.0,45.0,29.92,ESE,119,0.0,39.0,99,0.03,,,0.17,,2013-04-11 03:54:00,